Regional Weather Roundup
Issued by NWS

Home | Current Version | Previous Version | Graphics & Text | Print | Product List | Glossary On
Versions: 1 2 3 4 5 6 7 8 9 10 11 12 13 14 15 16 17 18 19 20 21 22 23 24 25 26 27 28 29 30 31 32 33 34 35 36 37 38 39 40 41 42 43 44 45 46 47 48 49 50
000
ASUS43 KMPX 032010
RWRMN
WEATHER ROUNDUP FOR MINNESOTA
NATIONAL WEATHER SERVICE TWIN CITIES/CHANHASSEN MN
200 PM CST TUE MAR 03 2015


NOTE: "FAIR" INDICATES FEW OR NO CLOUDS BELOW 12,000 FEET WITH NO
SIGNIFICANT WEATHER AND/OR OBSTRUCTIONS TO VISIBILITY. N/A MEANS
CURRENT SKY AND/OR WEATHER CONDITIONS ARE NOT AVAILABLE.

MNZ060>063-068>070-032100-
   Twin Cities Metro

CITY           SKY/WX    TMP DP  RH WIND       PRES   REMARKS
TWIN CITIES    FLURRIES  28  21  75 NW16G22   29.68S WCI  16
ST PAUL        CLOUDY    29  22  75 W18G24    29.69S HAZE    WCI  16
CRYSTAL        MIX PCPN  28  19  69 NW24G30   29.68S WCI  14
BLAINE         LGT SNOW  30  21  69 NW23G29   29.67S WCI  17
LAKEVILLE      PTSUNNY   27  21  80 NW15      29.67S WCI  15
EDEN PRAIRIE   CLOUDY    27  18  69 NW21G31   29.68S WCI  13
SOUTH ST PAUL  CLOUDY    29  22  74 NW14      29.68R WCI  19
LAKE ELMO      FLURRIES  30  23  74 NW14G21   29.67S WCI  20
$$
MNZ001>005-007-008-013>017-022>024-027-028-032100-
   Northwest Minnesota

CITY           SKY/WX    TMP DP  RH WIND       PRES   REMARKS
BEMIDJI        FAIR      11   2  66 W23G33    29.75S HAZE    WCI  -9
HALLOCK        PTSUNNY    9   0  66 NW20      29.86F WCI -11
ROSEAU         FAIR       9  -6  52 NW20G28   29.77S WCI -11
WARROAD        FAIR      10  -6  48 W20G29    29.75S WCI  -8
THIEF RVR FALL PTSUNNY    9  -2  61 NW20      29.82S WCI -11
CROOKSTON      FAIR      10   1  67 NW23G31   29.88S WCI -10
FOSSTON        CLOUDY    12   1  62 W20       29.81F HAZE    WCI  -6
DETROIT LAKES  LGT SNOW  12   7  79 NW20G30   29.83S VSB 3/4 WCI  -6
MOORHEAD       FAIR      16   7  67 NW23G36   29.90F WCI  -2
PARK RAPIDS    LGT SNOW  13   6  74 NW22G31   29.74R WCI  -6
MAHNOMEN       MOCLDY    11   4  73 NW20      29.82S WCI  -7
$$
MNZ006-009>011-018-025>026-032100-
   North Central Minnesota

CITY           SKY/WX    TMP DP  RH WIND       PRES   REMARKS
BAUDETTE       CLOUDY    11  -2  56 NW23G32   29.69F WCI  -9
FLAG ISLAND    FAIR       9  -6  52 NW23G29   29.69F WCI -12
INTL FALLS     FAIR      13  -2  51 NW23G35   29.64  WCI  -6
WASKISH        FAIR      14   3  62 W17G24    29.72S WCI  -3
BIG FORK       FAIR      19   3  49 W12G25    29.65S HAZE    WCI   7
LONGVILLE      FAIR      18   3  53 NW13G22   29.70F WCI   4
GRAND RAPIDS   CLOUDY    18   5  57 W18G32    29.64S WCI   2
CRANE LAKE     CLOUDY    16   5  62 NW14G23   29.62S WCI   1
ORR            PTSUNNY   18   3  53 NW20G26   29.59R WCI   1
COOK           CLOUDY    16   7  67 NW14G24   29.60S HAZE    WCI   1
WALKER         MOCLDY    13   2  60 NW10G23   29.72S WCI   0
$$
MNZ012-019>021-037-032100-
   Northeast Minnesota

CITY           SKY/WX    TMP DP  RH WIND       PRES   REMARKS
DULUTH         LGT SNOW  24  17  74 NW17G30   29.54S BLWGSNOWWCI  11
ELY            CLOUDY    19  12  73 NW15G25   29.53R WCI   5
HIBBING        LGT SNOW  19  11  70 NW20G26   29.60S WCI   3
EVELETH        LGT SNOW  21  14  73 NW14G24   29.59R WCI   8
DULUTH HARBOR  CLOUDY    28  19  69 W20       29.59S WCI  15
TWO HARBORS    PTSUNNY   30  19  64 W10G24    29.50F HAZE    WCI  21
SILVER BAY     PTSUNNY   30  19  64 W12G20    29.48F WCI  21
GRAND MARAIS     N/A     30  20  66 W9G20     29.47  WCI  22
G MARAIS ARPRT PTSUNNY   25  16  68 W8G18     29.40F HAZE    WCI  16
$$
MNZ029>031-032-039>041-046>048-054>057-064-032100-
   West Central Minnesota

CITY           SKY/WX    TMP DP  RH WIND       PRES   REMARKS
FERGUS FALLS   PTSUNNY   12   3  67 NW29G35   29.89F HAZE    WCI  -9
WHEATON        FAIR      12   3  67 NW29      29.92S HAZE    WCI  -9
MORRIS         SNOW      16   9  73 NW30G37   29.85S VSB 1/2 WCI  -4
ALEXANDRIA     CLOUDY    13   5  70 NW23G33   29.80R HAZE    WCI  -6
ELBOW LAKE     CLOUDY    13   6  74 NW28G33   29.85R HAZE    WCI  -8
WADENA         FAIR      12   3  67 NW23G31   29.77S HAZE    WCI  -7
GLENWOOD       PTSUNNY   14   7  73 NW28G35   29.80R HAZE    WCI  -6
APPLETON       PTSUNNY   16   9  73 NW30G37   29.90R HAZE    WCI  -4
BENSON         LGT SNOW  16   9  73 N29G36    29.86R WCI  -4
ORTONVILLE     PTSUNNY   14   3  62 NW21G31   29.91S HAZE    WCI  -4
MADISON        CLOUDY    16   9  73 NW26G36   29.91S HAZE    WCI  -3
WILLMAR        LGT SNOW  18  10  73 NW25G37   29.83R VSB 3/4 WCI  -1
$$
MNZ033>034-036-042>043-049>051-058-059-032100-
   Central Minnesota

CITY           SKY/WX    TMP DP  RH WIND       PRES   REMARKS
ST CLOUD       FAIR      21  11  65 NW24G32   29.71S WCI   4
SAUK CENTRE    MOCLDY    18  10  71 NW23      29.77R HAZE    WCI   0
PAYNESVILLE    CLOUDY    16   9  72 W20G30    29.78R HAZE    WCI   0
AITKIN         FAIR      25   7  46 NW10G22   29.66S WCI  15
PINE RIVER     FAIR      19   7  58 NW10G21   29.75R WCI   8
BRAINERD       MIX PCPN  20   6  55 NW20G31   29.70S WCI   4
STAPLES        PTSUNNY   16   7  67 NW18G28   29.74S WCI  -1
LITTLE FALLS   SNOW      21   7  53 NW17G26   29.74R VSB 1/2 WCI   7
LITCHFIELD     CLOUDY    21  16  79 NW18G29   29.76R WCI   6
BUFFALO        FAIR      25  13  58 NW17G30   29.73R HAZE    WCI  12
MAPLE LAKE     FAIR      26  14  61 NW17G26   29.73S WCI  13
$$
MNZ037-044-045-052-053-032100-
   East Central Minnesota

CITY           SKY/WX    TMP DP  RH WIND       PRES   REMARKS
PRINCETON      FAIR      27  14  59 NW18G28   29.68S HAZE    WCI  13
MORA           HVY SNOW  27  14  59 NW17G28   29.67S VSB<1/4 WCI  14
CAMBRIDGE      CLOUDY    28  18  64 W20       29.65R WCI  15
RUSH CITY      CLOUDY    28  17  62 NW12G20   29.65S WCI  18
MOOSE LAKE     PTSUNNY   27  12  54 NW14G22   29.61R WCI  15
HINCKLEY       CLOUDY    28  18  64 NW14G22   29.64R WCI  17
CLOQUET        PTSUNNY   23  12  63 W20G28    29.57S HAZE    WCI   8
MCGREGOR       FAIR      23  10  58 W18G25    29.65S WCI   9
$$
MNZ071>073-080-081-089-090-097-098-032100-
   Southwest Minnesota

CITY           SKY/WX    TMP DP  RH WIND       PRES   REMARKS
MONTEVIDEO     CLOUDY    16  16 100 N25G36    29.88R FOG     WCI  -3
GRANITE FALLS  LGT SNOW  17  12  79 W28G36    29.89R WCI  -2
CANBY          CLOUDY    16   7  69 NW25G33   29.91R HAZE    WCI  -3
MARSHALL       PTSUNNY   16   7  67 NW26G32   29.88R WCI  -3
REDWOOD FALLS  LGT SNOW  21  12  68 NW20G31   29.82R WCI   6
OLIVIA         LGT SNOW  19  14  79 NW29G36   29.81R WCI   1
PIPESTONE      LGT SNOW  18  10  73 NW24G33   29.86R WCI   0
WINDOM         CLOUDY    19  16  86 NW30G37   29.80R HAZE    WCI   0
WORTHINGTON    PTSUNNY  N/A N/A N/A NW29      29.84R
JACKSON        CLOUDY    23  16  74 NW29G36   29.80R HAZE    WCI   6
TRACY          SNOW      19  14  81 NW25G35   29.84R VSB 1/2 WCI   1
SLAYTON        LGT SNOW  18  12  77 NW24      29.84R WCI   0
$$
MNZ065>067-074>077-082>085-091>093-032100-
   South Central Minnesota

CITY           SKY/WX    TMP DP  RH WIND       PRES   REMARKS
MANKATO        CLOUDY   N/A N/A N/A NW25G32   29.74R
NEW ULM        PTSUNNY   19  14  79 NW28G36   29.77R HAZE    WCI   1
ST JAMES       CLOUDY    23  19  86 NW23G30   29.80R FOG     WCI   7
FAIRMONT       CLOUDY    25  16  68 NW24G33   29.76S WCI   9
GLENCOE        FAIR      25  19  76 NW18G28   29.74R WCI  11
FARIBAULT      CLOUDY    28  21  74 W20G25    29.70R WCI  15
OWATONNA       FLURRIES  27  21  80 NW18G25   29.69S WCI  13
WASECA         LGT SNOW  25  21  86 NW18G29   29.73R WCI  11
ALBERT LEA     CLOUDY    27  21  80 NW14G29   29.70S WCI  15
$$
MNZ078>079-086>088-094>096-032100-
   Southeast Minnesota

CITY           SKY/WX    TMP DP  RH WIND       PRES   REMARKS
ROCHESTER      CLOUDY    27  22  81 NW26G32   29.66R HAZE    WCI  12
RED WING       PTSUNNY   30  21  69 NW10G16   29.66S WCI  21
STANTON        CLOUDY    30  22  72 NW17      29.67S WCI  19
DODGE CENTER   CLOUDY    28  23  80 NW17G25   29.66S WCI  16
WINONA         CLOUDY    32  23  69 W15G25    29.66S WCI  22
AUSTIN         CLOUDY    28  23  80 NW18G26   29.68R WCI  16
PRESTON        CLOUDY    28  23  82 NW20G26   29.66R WCI  15
$$
ABBREVIATIONS USED IN REMARKS
   TC - TEMPERATURES IN CELSIUS
  WCI - WIND CHILL INDEX
   HX - HEAT INDEX
  VSB - VISIBILITY
$$



USA.gov is the U.S. government's official web portal to all federal, state and local government web resources and services.